This is the latest recevied weather packets stored in our database for station/object KE8RXN. If no packets are shown the sender has not sent any weather packets the latest 10 day(s).
| Time | Temp. | Humidity | Pressure | Rain* | Wind** | Luminosity | Snow |
|---|---|---|---|---|---|---|---|
| 1778109366 | 10.56° C | 43% | 1016.3 hPa | 0 mm | - | 70 W/m² | - |
| 1778109064 | 10.56° C | 43% | 1016.2 hPa | 0 mm | - | 76 W/m² | - |
| 1778108760 | 10.56° C | 42% | 1016.3 hPa | 0 mm | - | 59 W/m² | - |
| 1778108457 | 11.11° C | 43% | 1016.3 hPa | 0 mm | - | 62 W/m² | - |
| 1778108154 | 11.11° C | 43% | 1016.2 hPa | 0 mm | - | 69 W/m² | - |
| 1778107850 | 11.11° C | 41% | 1016.3 hPa | 0 mm | - | 82 W/m² | - |
| 1778107548 | 11.11° C | 41% | 1016.3 hPa | 0 mm | - | 80 W/m² | - |
| 1778107244 | 11.67° C | 41% | 1016.4 hPa | 0 mm | - | 81 W/m² | - |
| 1778106940 | 11.67° C | 40% | 1016.3 hPa | 0 mm | - | 69 W/m² | - |
| 1778106637 | 11.67° C | 41% | 1016.3 hPa | 0 mm | - | 64 W/m² | - |
| 1778106333 | 11.67° C | 40% | 1016.3 hPa | 0 mm | - | 63 W/m² | - |
| 1778106030 | 11.67° C | 40% | 1016.4 hPa | 0 mm | - | 68 W/m² | - |
| 1778105727 | 11.67° C | 40% | 1016.2 hPa | 0 mm | - | 83 W/m² | - |
| 1778105425 | 11.67° C | 39% | 1016.4 hPa | 0 mm | - | 127 W/m² | - |
| 1778105121 | 11.67° C | 40% | 1016.3 hPa | 0 mm | - | 59 W/m² | - |
| 1778104816 | 12.22° C | 40% | 1016.2 hPa | 0 mm | - | 63 W/m² | - |
| 1778104514 | 11.67° C | 40% | 1016.3 hPa | 0 mm | - | 59 W/m² | - |
| 1778104209 | 12.22° C | 39% | 1016.2 hPa | 0 mm | - | 72 W/m² | - |
| 1778103907 | 12.22° C | 38% | 1016.3 hPa | 0 mm | - | 202 W/m² | - |
| 1778103604 | 12.22° C | 38% | 1016.3 hPa | 0 mm | - | 198 W/m² | - |
| 1778103302 | 12.78° C | 37% | 1016.3 hPa | 0 mm | - | 217 W/m² | - |
| 1778102998 | 12.78° C | 39% | 1016.2 hPa | 0 mm | - | 142 W/m² | - |
| 1778102695 | 12.78° C | 38% | 1016.4 hPa | 0 mm | - | 233 W/m² | - |
| 1778102389 | 12.78° C | 38% | 1016.2 hPa | 0 mm | - | 448 W/m² | - |
| 1778102086 | 12.78° C | 38% | 1016.2 hPa | 0 mm | - | 477 W/m² | - |
* Rain latest hour (hover to see other rain measurements)
** Current wind speed in m/s (hover to see current wind gust speed)